Regional Weather Roundup
Issued by NWS Newport/Morehead, NC

Current Version | Previous Version | Text Only | Print | Product List | Glossary On
Versions: 1 2 3 4 5 6 7 8 9 10 11 12 13 14 15 16 17 18 19 20 21 22 23 24 25 26 27 28 29 30 31 32 33 34 35 36 37 38 39 40 41 42 43 44 45 46 47 48 49 50
000
ASUS42 KMHX 080925
RWRMHX
WEATHER ROUNDUP FOR EASTERN NORTH CAROLINA
NATIONAL WEATHER SERVICE NEWPORT/MOREHEAD CITY NC
400 AM EST MON FEB 08 2016

NOTE: "FAIR" INDICATES FEW OR NO CLOUDS BELOW 12,000 FEET
WITH NO SIGNIFICANT WEATHER AND/OR OBSTRUCTIONS TO VISIBILITY

NCZ015>017-031-032-045>047-102-103-081000-
NORTH COAST

CITY           SKY/WX    TMP DP  RH WIND       PRES   REMARKS
EDENTON        CLOUDY    40  27  60 NW9       29.70R
ELIZABETH CITY CLOUDY    40  29  64 NW18      29.67R
KITTY HAWK     CLOUDY    41  33  74 NW12G23   29.63R
MANTEO         CLOUDY    40  33  74 N14G25    29.63S

$$

NCZ045>047-081-094-103-104-081000-
CENTRAL COAST

CITY           SKY/WX    TMP DP  RH WIND       PRES   REMARKS
FRISCO         CLOUDY    42  36  79 NW16G28   29.62R
SWANQUARTER      N/A     37 N/A N/A NW13G20   29.68R

$$

NCZ095-097-098-100-101-081000-
SOUTHERN COAST

CITY           SKY/WX    TMP DP  RH WIND       PRES   REMARKS
BEAUFORT       PTCLDY    40  28  62 NW18      29.73R
CEDAR ISLAND     N/A     43 N/A N/A NW31G38   29.74R
JACKSONVILLE   CLEAR     37  24  59 NW13      29.78R
PINEY ISLAND   NOT AVBL
WILMINGTON     CLEAR     39  26  59 NW12      29.82R


$$

NCZ011>013-027>030-043-044-078>080-089-090>093-098-081000-
COASTAL PLAIN

CITY           SKY/WX    TMP DP  RH WIND       PRES   REMARKS
AHOSKIE        CLEAR     36  21  53 NW5       29.76R
CLINTON        CLEAR     37  27  69 W3        29.83R
ELIZABETHTOWN  CLEAR     38  27  66 W6        29.84R
GOLDSBORO      NOT AVBL
GREENVILLE     CLEAR     37  23  56 NW5       29.79R
HAVELOCK       CLEAR     39  24  55 W15       29.75R
KENANSVILLE      N/A     36  25  64 CALM      29.82R
KINSTON        CLEAR     37  24  58 NW7       29.79R
NEW BERN       CLEAR     38  23  55 NW9       29.75R
RICHLANDS      CLEAR     37  19  48 W5        29.81R
ROCKY MOUNT    CLEAR     36  23  59 NW8       29.79R
WASHINGTON     CLEAR     37  23  58 CALM      29.75R
WHITEVILLE     CLEAR     38  28  68 CALM      29.85R

$$

AMZ130-135-150-152-154-156-158-170-250-252-270-ANZ085-086-088-633-658-670-081000-
MARINE OBSERVATIONS

STATION/POSITION TIME  TEMP    WIND        PRES    WAVE   SWELL
                       AIR SEA DIR/SP/G            HT/PER HT/PER
                 (UTC) (F)     (DEG/KT/KT) (MB)    (FT/S) (FT/S)
CHESAPEAKE LIGHT 0900   41     350/ 36/ 39 1003.4
64 E VA BEACH    0850   49 53   10/ 31/ 41  998.5   18/11  15/11
DUCK             0900   41 52  330/ 21/ 27 1002.8
2 E DUCK         0911      44                N/A    12/12   8/12
OREGON INLET     0900   41 45  330/ 21/ 30 1002.6
13E OREGON INLT  0900      47                N/A    17/12  11/12
HATTERAS CG      0900   42 46  320/ 28/ 32 1002.9
DIAMOND BUOY     0850   46 71  330/ 31/ 37 1000.9   14/12  11/12
CAPE LOOKOUT     NOT AVBL
BEAUFORT LAB     0900   40 44  310/  7/ 12 1005.9
30 SE NEW RVR IN 0908   47 58              1005.6
30 SE NEW RVR IN 0825      58                N/A    10/ 6   5/14
27 SE WRIGHTSVLE 0908   47 60  360/ 23/ 33 1006.7
5 SE WRIGHTSVLE  0808   45 52  310/ 19/ 29 1008.9
225 S CAPE HAT   0850   59 69  300/ 35/ 45   N/A    27/13  20/13
41 SE CHARLESTON 0850   53 66  300/ 14/ 17 1012.2    6/ 5   3/ 8

$$



USA.gov is the U.S. government's official web portal to all federal, state and local government web resources and services.